Location: Homewood
(41.1836°S, 175.9581°E)
Time: 03:16:09
(UTC+00:00)

Cosmos 2082 Rocket - Pass Details

Date: 18 April 2024
Orbit: 831 x 854 km, 71.0° (Epoch: 22 May)

Event Time Altitude Azimuth Distance (km) Brightness Sun altitude
Rises 16:35:12 0° 196° (SSW) 3,413 5.3 -26.1°
Reaches altitude 10° 16:37:58 10° 185° (S) 2,474 4.6 -25.6°
Maximum altitude 16:42:57 31° 124° (SE) 1,451 3.9 -24.7°
Drops below altitude 10° 16:47:54 10° 62° (ENE) 2,458 5.4 -23.7°
Sets 16:50:37 0° 52° (NE) 3,387 6.0 -23.2°
